Location: Caltech
(34.1382°N, 118.1253°W)
Time: 10:35:49
(UTC-08:00)

Cosmos 1939 Rocket - Visible Passes

Search period start: 23 February 2018 00:00
Search period end: 05 March 2018 00:00
Orbit: 534 x 585 km, 97.5° (Epoch: 22 February)

Date Brightness Start Highest point End Pass type
(mag) Time Alt. Az. Time Alt. Az. Time Alt. Az.
23 Feb 5.6 20:14:27 13° NNW 20:14:27 13° NNW 20:14:59 10° NNW visible
24 Feb 5.5 20:12:53 15° NNW 20:12:53 15° NNW 20:13:39 10° NNW visible
25 Feb 5.4 20:11:20 16° NNW 20:11:20 16° NNW 20:12:17 10° NNW visible
26 Feb 5.2 20:09:48 18° NNW 20:09:48 18° NNW 20:10:55 10° NNW visible
27 Feb 5.1 20:08:15 20° NNW 20:08:15 20° NNW 20:09:34 10° NNW visible
28 Feb 5.0 20:06:43 22° NNW 20:06:43 22° NNW 20:08:12 10° NNW visible
01 Mar 4.8 20:05:11 24° NNW 20:05:11 24° NNW 20:06:51 10° NNW visible
02 Mar 4.7 20:03:38 26° NNW 20:03:38 26° NNW 20:05:29 10° NNW visible
03 Mar 4.6 20:02:07 28° NNW 20:02:07 28° NNW 20:04:07 10° NNW visible
04 Mar 4.4 20:00:35 30° NNW 20:00:35 30° NNW 20:02:44 10° NNW visible
